DateTimeUTC,F1_A11,F1_S11,BsB_S11,BsG_S11,BsR_S11,BbsB_S11,BbsG_S11,BbsR_S11,BaB_A11,BaG_A11,BaR_A11,Tu_S11,T_S11,Uu_S11,U_S11,P_S11,T1_A11
2021-01-31T19:00:00Z,00000200,21000000,,,,,,,-000.38,-000.14,-000.43,16.0,23.1,,00.0,0628.4,30.9
2021-01-31T19:01:00Z,00000200,21000000,,,,,,,-000.22,0000.03,0000.10,16.0,23.1,,00.0,0628.4,30.9
2021-01-31T19:02:00Z,00000200,21000000,,,,,,,0000.17,-000.19,0000.28,16.0,23.1,,00.0,0628.4,30.9
2021-01-31T19:03:00Z,00000200,61000000,,,,,,,-000.13,0000.27,-000.05,16.0,23.1,,00.0,0628.4,30.9
2021-01-31T19:04:00Z,00000200,41000000,0000.87,0000.22,0000.20,0000.25,-000.06,0000.09,0000.42,-000.09,0000.21,16.3,23.0,,00.0,0629.3,30.9
2021-01-31T19:05:00Z,00000200,01000000,0000.13,0000.22,0000.40,0000.28,-000.04,0000.22,-000.04,-000.00,0000.17,16.3,23.0,,00.0,0629.4,30.9
2021-01-31T19:06:00Z,00000200,01000000,0000.78,0000.10,-000.08,-000.10,0000.07,0000.04,-000.27,0000.12,-000.26,16.4,23.0,,00.0,0629.4,30.9
2021-01-31T19:07:00Z,00000200,01000000,0000.34,0000.24,0000.27,-000.24,0000.20,0000.19,-000.03,-000.04,-000.02,16.3,22.9,,00.0,0629.4,30.9
2021-01-31T19:08:00Z,00000200,01000000,0000.55,0000.26,0000.11,-000.40,-000.17,0000.02,0000.01,-000.06,-000.10,16.2,22.9,,00.0,0629.5,30.9
2021-01-31T19:09:00Z,00000200,01000000,0000.51,-000.08,0000.25,0000.40,-000.25,0000.17,0000.27,0000.50,0000.51,16.2,22.9,,00.0,0629.5,30.9
2021-01-31T19:10:00Z,00000200,01000000,0000.41,0000.42,0000.41,-000.04,-000.05,0000.46,0000.07,0000.03,-000.02,16.1,22.8,,00.0,0629.5,30.8
2021-01-31T19:11:00Z,00000200,01000000,0000.37,0000.32,0000.14,0000.04,-000.06,-000.04,-000.08,-000.52,-000.30,16.1,22.8,,00.0,0629.5,30.8
2021-01-31T19:12:00Z,00000200,01000000,-000.24,0000.17,0000.23,0000.01,0000.03,0000.10,-000.16,0000.12,-000.17,16.0,22.8,,00.0,0629.6,30.8
2021-01-31T19:13:00Z,00000200,01000000,0000.67,0000.10,0000.21,0000.10,-000.01,0000.10,-000.44,-000.63,-000.33,15.9,22.7,,00.0,0629.6,30.8
2021-01-31T19:14:00Z,00000200,01000000,0000.52,0000.33,0000.30,-000.42,0000.01,0000.19,0000.17,0000.12,0000.16,15.9,22.7,,00.0,0629.5,30.8
2021-01-31T19:15:00Z,00000200,01000000,0000.99,0000.31,0000.07,-000.24,0000.15,-000.02,0000.01,0000.29,-000.19,15.8,22.7,,00.0,0629.5,30.8
2021-01-31T19:16:00Z,00000200,01000000,0000.37,0000.61,0000.22,0000.26,0000.13,-000.15,0000.25,-000.06,-000.05,15.8,22.7,,00.0,0629.5,30.8
2021-01-31T19:17:00Z,00000200,01000000,0000.80,0000.16,0000.04,-000.39,0000.19,0000.07,-000.18,-000.36,0000.34,15.8,22.6,,00.0,0629.5,30.8
2021-01-31T19:18:00Z,00000200,01000000,0000.68,0000.46,0000.02,0000.07,0000.12,0000.11,0000.15,0000.24,0000.12,15.8,22.7,,00.0,0629.5,30.8
2021-01-31T19:19:00Z,00000200,01000000,0000.38,0000.05,0000.38,-000.13,0000.03,0000.25,-000.18,0000.17,0000.31,15.9,22.7,,00.0,0629.5,30.8
2021-01-31T19:20:00Z,00000200,01000000,0000.99,0000.17,0000.39,0000.22,0000.09,0000.13,0000.41,0000.02,-000.03,16.0,22.7,,00.0,0629.4,30.9
2021-01-31T19:21:00Z,00000200,01000000,0000.24,-000.22,0000.18,-000.24,-000.06,0000.10,0000.30,0000.26,-000.11,16.0,22.7,,00.0,0629.4,30.9
2021-01-31T19:22:00Z,00000200,01000000,0000.03,0000.45,0000.19,-000.15,0000.07,-000.07,-000.62,0000.02,0000.20,16.1,22.7,,00.0,0629.5,30.9
2021-01-31T19:23:00Z,00000200,01000000,0000.22,0000.25,0000.40,-000.58,-000.10,0000.21,0000.19,-000.34,-000.13,16.1,22.8,,00.0,0629.4,30.9
2021-01-31T19:24:00Z,00000200,01000000,0000.55,0000.34,0000.17,-000.21,-000.11,0000.29,0000.04,0000.81,0000.23,16.1,22.7,,00.0,0629.4,30.9
2021-01-31T19:25:00Z,00000200,01000000,0000.48,0000.16,-000.09,-000.36,0000.25,-000.10,0000.14,-000.09,-000.20,16.0,22.7,,00.0,0629.4,30.9
2021-01-31T19:26:00Z,00000200,01000000,-000.15,0000.18,0000.11,0000.64,-000.14,0000.05,-000.01,-000.24,0000.13,16.0,22.7,,00.0,0629.5,30.9
2021-01-31T19:27:00Z,00000200,01000000,-000.01,0000.30,0000.29,-000.63,0000.22,0000.38,-000.31,-000.60,-000.29,15.9,22.7,,00.0,0629.6,30.8
2021-01-31T19:28:00Z,00000200,01000000,-000.13,0000.04,0000.10,-000.29,0000.03,0000.13,0000.12,0000.09,-000.06,15.9,22.6,,00.0,0629.5,30.8
2021-01-31T19:29:00Z,00000200,01000000,0000.40,0000.28,0000.06,-000.86,-000.02,0000.20,0000.00,0000.21,0000.05,15.8,22.6,,00.0,0629.4,30.8
2021-01-31T19:30:00Z,00000200,01000000,0000.45,0000.06,0000.08,-000.12,0000.15,-000.24,0000.05,-000.05,0000.37,15.8,22.6,,00.0,0629.4,30.8
2021-01-31T19:31:00Z,00000200,01000000,0000.69,0000.40,0000.01,0000.02,-000.06,-000.01,0000.18,0000.20,0000.11,15.7,22.5,,00.0,0629.4,30.8
2021-01-31T19:32:00Z,00000200,01000000,0000.61,0000.12,0000.34,-000.18,-000.06,0000.38,0000.32,0000.17,0000.06,15.7,22.5,,00.0,0629.4,30.8
2021-01-31T19:33:00Z,00000200,01000000,0000.30,0000.32,0000.35,-000.10,-000.08,0000.11,0000.20,-000.11,0000.29,15.8,22.5,,00.0,0629.4,30.8
2021-01-31T19:34:00Z,00000200,01000000,-000.16,0000.09,0000.19,0000.34,-000.03,0000.28,0000.09,0000.53,0000.18,15.8,22.5,,00.0,0629.4,30.8
2021-01-31T19:35:00Z,00000200,01000000,0001.03,0000.24,0000.05,-000.36,0000.31,-000.08,0000.55,0000.21,0000.02,15.9,22.6,,00.0,0629.5,30.8
2021-01-31T19:36:00Z,00000200,01000000,0000.75,0000.25,0000.11,0000.06,0000.21,0000.23,-000.47,-000.07,-000.13,15.9,22.6,,00.0,0629.5,30.9
2021-01-31T19:37:00Z,00000200,01000000,0000.36,0000.10,0000.20,0000.22,-000.14,0000.40,0000.28,0000.40,0000.23,16.0,22.6,,00.0,0629.5,30.9
2021-01-31T19:38:00Z,00000200,01000000,0000.58,0000.35,0000.23,-000.20,0000.22,0000.26,0000.02,-000.03,0000.10,16.1,22.7,,00.0,0629.5,30.9
2021-01-31T19:39:00Z,00000200,01000000,-000.11,-000.02,0000.04,0000.13,0000.01,0000.06,0000.01,-000.55,-000.43,16.1,22.7,,00.0,0629.5,30.9
2021-01-31T19:40:00Z,00000200,01000000,0000.53,0000.04,0000.19,0000.17,-000.10,0000.04,-000.25,0000.32,-000.10,16.1,22.7,,00.0,0629.5,30.9
2021-01-31T19:41:00Z,00000200,01000000,0000.66,0000.12,0000.20,-000.05,0000.04,0000.18,0000.24,0000.25,0000.50,16.1,22.7,,00.0,0629.5,30.9
2021-01-31T19:42:00Z,00000200,01000000,0000.57,0000.42,0000.07,0000.12,0000.04,0000.26,0000.33,-000.32,-000.01,16.0,22.7,,00.0,0629.5,30.9
2021-01-31T19:43:00Z,00000200,01000000,0000.46,0000.09,-000.02,0000.19,-000.15,-000.07,-000.27,0000.43,0000.13,16.0,22.6,,00.0,0629.5,30.9
2021-01-31T19:44:00Z,00000200,01000000,0000.38,0000.16,-000.20,-000.51,-000.12,0000.07,0000.02,-000.39,0000.06,15.9,22.6,,00.0,0629.5,30.8
2021-01-31T19:45:00Z,00000200,01000000,0000.56,0000.43,0000.11,-000.19,-000.10,0000.24,-000.37,-000.22,-000.03,15.8,22.6,,00.0,0629.5,30.8
2021-01-31T19:46:00Z,00000200,01000000,0000.79,0000.28,0000.07,-000.48,-000.07,0000.20,0000.09,-000.39,-000.36,15.8,22.5,,00.0,0629.5,30.8
2021-01-31T19:47:00Z,00000200,01000000,0000.58,0000.33,0000.06,-000.16,0000.04,0000.06,0000.42,0000.37,-000.04,15.8,22.5,,00.0,0629.5,30.8
2021-01-31T19:48:00Z,00000200,01000000,0000.30,0000.15,0000.04,-000.25,-000.05,0000.19,0000.40,0000.41,0000.46,15.8,22.5,,00.0,0629.4,30.8
2021-01-31T19:49:00Z,00000200,01000000,0000.44,0000.36,0000.07,-000.06,-000.01,0000.04,-000.08,0000.41,0000.60,15.9,22.5,,00.0,0629.5,30.8
2021-01-31T19:50:00Z,00000200,01000000,0000.66,0000.22,0000.48,0000.14,-000.00,0000.17,0000.10,0000.33,0000.04,15.9,22.6,,00.0,0629.4,30.8
2021-01-31T19:51:00Z,00000200,01000000,0000.66,0000.46,0000.10,0000.04,0000.05,-000.02,0000.44,0000.03,-000.18,16.0,22.6,,00.0,0629.4,30.9
2021-01-31T19:52:00Z,00000200,01000000,0000.17,0000.26,0000.32,-000.38,0000.08,0000.08,0000.28,-000.07,0000.29,16.1,22.6,,00.0,0629.5,30.9
2021-01-31T19:53:00Z,00000200,01000000,0001.45,0000.33,-000.01,-000.39,0000.03,-000.05,0000.25,0000.78,0000.11,16.1,22.6,,00.0,0629.5,30.9
2021-01-31T19:54:00Z,00000200,01000000,-000.15,0000.31,0000.03,-000.11,0000.29,0000.10,-000.06,-000.30,0000.19,16.1,22.7,,00.0,0629.4,30.9
2021-01-31T19:55:00Z,00000200,01000000,0000.85,0000.35,0000.05,-000.05,0000.14,-000.01,0000.53,0000.55,-000.04,16.1,22.7,,00.0,0629.4,30.9
2021-01-31T19:56:00Z,00000200,01000000,0001.04,0000.39,0000.34,-000.50,0000.01,0000.21,-000.03,-000.28,0000.14,16.1,22.6,,00.0,0629.4,30.9
2021-01-31T19:57:00Z,00000200,41000000,,,,,,,0000.83,0000.85,0000.47,16.1,22.7,,00.0,0629.4,30.8
2021-01-31T19:58:00Z,00000200,61000000,,,,,,,-000.24,-000.23,-000.25,15.5,22.7,,00.0,0628.6,30.8
2021-01-31T19:59:00Z,00000200,21000000,,,,,,,-000.57,-000.31,-000.38,15.5,22.8,,00.0,0628.6,30.8
